Location: Newark
(53.7496°N, 2.4752°W)
Time: 21:43:08
(UTC+00:00)

ISS - Visible Passes

Search period start: 23 October 2019 00:00
Search period end: 02 November 2019 00:00
Orbit: 411 x 421 km, 51.6° (Epoch: 24 October)

Date Brightness Start Highest point End Pass type
(mag) Time Alt. Az. Time Alt. Az. Time Alt. Az.
25 Oct -0.6 05:37:30 10° SSE 05:38:35 11° SE 05:39:39 10° ESE visible
27 Oct -1.4 05:35:04 10° SSW 05:37:40 21° SSE 05:40:16 10° E visible
28 Oct -1.1 04:47:33 11° S 04:49:15 15° SE 04:51:16 10° ESE visible
29 Oct -0.6 04:01:16 10° SE 04:01:16 10° SE 04:01:33 10° SE visible
29 Oct -2.4 05:34:10 13° SW 05:36:51 34° SSE 05:39:56 10° E visible
30 Oct -2.1 04:47:45 25° S 04:48:20 26° SSE 04:51:13 10° E visible
30 Oct -3.2 06:21:23 10° WSW 06:24:42 57° S 06:28:01 10° E visible
31 Oct -0.9 04:01:14 16° ESE 04:01:14 16° ESE 04:02:22 10° E visible
31 Oct -3.1 05:34:08 21° SW 05:36:06 50° SSE 05:39:22 10° E visible
01 Nov -2.9 04:47:33 41° SSE 04:47:33 41° SSE 04:50:42 10° E visible
01 Nov -3.4 06:20:40 10° W 06:24:00 61° S 06:27:20 10° ESE visible
